Regional Weather Roundup
Issued by NWS

Home | Current Version | Previous Version | Text Only | Print | Product List | Glossary Off
Versions: 1 2 3 4 5 6 7 8 9 10 11 12 13 14 15 16 17 18 19 20 21 22 23 24 25 26 27 28 29 30 31 32 33 34 35 36 37 38 39 40 41 42 43 44 45 46 47 48 49 50

988
ASUS43 KDMX 211201
RWRIA

WEATHER ROUNDUP FOR IOWA
NATIONAL WEATHER SERVICE DES MOINES IA
700 AM CDT SAT APR 21 2018

NOTE: "FAIR" INDICATES FEW OR NO CLOUDS BELOW 12,000 FEET WITH NO
SIGNIFICANT WEATHER AND/OR OBSTRUCTIONS TO VISIBILITY.

* - THESE STATIONS ARE NOT NWS STATIONS...THUS NOT UNDER NWS
QUALITY CONTROL.  THEY ALSO DO NOT REPORT WEATHER SUCH
AS PRECIPITATION OR FOG.

IAZ001>003-012>014-020>022-031>034-043>046-211300-
   NORTHWEST IOWA

CITY           SKY/WX    TMP DP  RH WIND       PRES   REMARKS
CARROLL *      CLOUDY    41  36  81 CALM      30.35R
CHEROKEE *     CLOUDY    38  31  75 NE6       30.34S WCI  34
DENISON *      MOCLDY    43  34  70 E9        30.35R
LE MARS *      CLOUDY    41  32  70 E8        30.33R
ORANGE CITY *  CLOUDY    39  34  81 E8        30.34R WCI  34
SHELDON *      CLOUDY    39  30  70 E7        30.34R WCI  34
SIOUX CITY     CLOUDY    42  33  70 E6        30.32R
6HR MIN TEMP:  42; 6HR MAX TEMP:  44;

SPENCER        CLOUDY    37  30  75 NE6       30.36F WCI  32
6HR MIN TEMP:  36; 6HR MAX TEMP:  38;

STORM LAKE *   CLOUDY    37  32  81 NE8G15    30.34R WCI  31
$$

IAZ055>058-069>071-079>083-090>094-211300-
   SOUTHWEST IOWA

CITY           SKY/WX    TMP DP  RH WIND       PRES   REMARKS
ATLANTIC *     CLOUDY    45  34  65 NE7       30.31F
AUDUBON *        N/A     43  34  70 NE3       30.34S
CLARINDA *     CLOUDY    46  27  46 N5        30.32R
COUNCIL BLFS * CLOUDY    46  28  49 E10       30.28S
CRESTON *      CLOUDY    45  28  53 E12       30.32S
HARLAN  *      CLOUDY    45  32  61 E9        30.34F
LAMONI         CLOUDY    44  27  51 NE7       30.32R
6HR MIN TEMP:  42; 6HR MAX TEMP:  50;

RED OAK *      CLOUDY    46  28  49 NE10      30.29S
SHENANDOAH *   CLOUDY    46  28  49 E5        30.29R
$$

IAZ047>049-059>061-072>074-084-211300-
   CENTRAL IOWA

CITY           SKY/WX    TMP DP  RH WIND       PRES   REMARKS
AMES           CLOUDY    42  34  73 E5        30.36F
6HR MIN TEMP:  42; 6HR MAX TEMP:  45; 6HR PCP: TRACE;

ANKENY *       CLOUDY    43  34  70 CALM      30.37S
BOONE *        CLOUDY    41  36  81 E6        30.35R
CHARITON *     CLOUDY    45  27  49 E7        30.34R
DES MOINES     CLOUDY    46  31  55 E9        30.36S
6HR MIN TEMP:  46; 6HR MAX TEMP:  52;

GRINNELL*      CLOUDY    43  31  64 E8        30.38S
KNOXVILLE *    CLOUDY    45  25  45 NE7       30.35S
MARSHALLTOWN   CLOUDY    42  35  76 E8        30.36F
6HR MIN TEMP:  40; 6HR MAX TEMP:  44;

NEWTON *       CLOUDY    43  32  65 E8        30.36F
PELLA *        CLOUDY    43  27  52 NE3       30.37F
$$

IAZ004>006-015-016-023>025-035-036-211300-
   NORTH CENTRAL IOWA

CITY           SKY/WX    TMP DP  RH WIND       PRES   REMARKS
ALGONA *       CLOUDY    36  30  80 NE5       30.37F WCI  32
CLARION *      CLOUDY    39  32  75 E12       30.37F WCI  32
ESTHERVILLE    CLOUDY    34  29  82 NE6       30.37F WCI  29
6HR MIN TEMP:  33; 6HR MAX TEMP:  36;

FORT DODGE *   CLOUDY    39  34  82 NE5       30.37S
MASON CITY     CLOUDY    41  29  62 SE3       30.40S
6HR MIN TEMP:  34; 6HR MAX TEMP:  41;

FOREST CITY *  MOCLDY    43  30  61 E7        30.38S
WEBSTER CITY * CLOUDY    41  34  75 E9        30.35R
IOWA FALLS *   CLOUDY    41  34  76 NE5       30.38S
$$

IAZ007>011-017>019-026>030-037>042-050>054-066-211300-
   NORTHEAST IOWA

CITY           SKY/WX    TMP DP  RH WIND       PRES   REMARKS
CEDAR RAPIDS   FAIR      44  29  55 E6        30.39R
6HR MIN TEMP:  43; 6HR MAX TEMP:  48;

CHARLES CITY * CLOUDY    41  30  65 E8        30.41R
CLINTON *        N/A     44  25  47 E8        30.42S
DECORAH *      CLOUDY    39  30  70 E5        30.41R
DUBUQUE        CLOUDY    44  21  40 SE6       30.42R
6HR MIN TEMP:  42; 6HR MAX TEMP:  46;

MONTICELLO *   CLOUDY    45  27  49 CALM      30.41S
OELWEIN *      CLOUDY    43  36  75 S6        30.42R
WATERLOO       CLOUDY    45  31  58 E8        30.39S
6HR MIN TEMP:  39; 6HR MAX TEMP:  45;

$$

IAZ064-065-067-068-078-211300-
   EAST CENTRAL IOWA

CITY           SKY/WX    TMP DP  RH WIND       PRES   REMARKS
DAVENPORT      FAIR      43  25  49 E6        30.43R
6HR MIN TEMP:  43; 6HR MAX TEMP:  47;

IOWA CITY      FAIR      45  29  53 NE5       30.41R
6HR MIN TEMP:  44; 6HR MAX TEMP:  52;

MT. PLEASANT * CLOUDY    43  28  56 E8        30.38R
MUSCATINE *    FAIR      43  30  61 NE5       30.41R
QUAD CITIES    FAIR      44  29  55 E5        30.40S
6HR MIN TEMP:  42; 6HR MAX TEMP:  48;

$$

IAZ062-063-075>077-085>089-095>099-211300-
   SOUTHEAST IOWA

CITY           SKY/WX    TMP DP  RH WIND       PRES   REMARKS
BURLINGTON     MOCLDY    47  25  42 E8        30.37R
6HR MIN TEMP:  46; 6HR MAX TEMP:  50;

FAIRFIELD *    CLOUDY    43  27  52 E7        30.38R
FORT MADISON * CLOUDY    46  28  49 E6        30.38R
KEOKUK *       CLOUDY    46  28  49 E13       30.36R
OSKALOOSA *    FAIR      43  28  56 E7        30.38R
CENTERVILLE *    N/A     45  25  45 CALM      30.36R
OTTUMWA        CLOUDY    44  27  51 E6        30.37R
6HR MIN TEMP:  43; 6HR MAX TEMP:  48;

WASHINGTON *   CLOUDY    41  32  70 NE7       30.40R
$$

ABBREVIATIONS USED IN REMARKS
   TC - TEMPERATURES IN CELSIUS
  WCI - WIND CHILL INDEX
   HX - HEAT INDEX
  VSB - VISIBILITY
$$





USA.gov is the U.S. government's official web portal to all federal, state and local government web resources and services.